Tracking 18843 objects as of 20-November-2017
HD Live streaming from Space Station
objects crossing your sky now

FENGYUN 1C DEB

Track FENGYUN 1C DEB now!
10-day predictions


NORAD ID: 32337
Int'l Code: 1999-025CYE
Perigee: 849.5 km
Apogee: 1,329.8 km
Inclination: 99.3 °
Period: 106.9 minutes
Semi major axis: 7460 km
RCS: 0.0137 m2 (small)
Launch date: May 10, 1999
Source: People's Republic of China (PRC)
Launch site: Taiyaun Space Center, China (TSC)

Note: This is SATELLITE DEBRIS
aabbcc
Your satellite tracking list
Your tracking list is empty




NASA's NSSDC Master Catalog

Two Line Element Set (TLE):
1 32337U 99025CYE 17310.08801048  .00000559  00000-0  71619-3 0  9990
2 32337  99.2996  45.1683 0321905  35.3536 326.8487 13.47210558504076
Source of the keplerian elements: AFSPC